Location: Newark
(52.8300°N, 8.0000°E)
Time: 22:45:43
(UTC+00:00)

STARLINK-1091 - Pass Details

Date: 29 January 2020
Orbit: 349 x 350 km, 53.0° (Epoch: 18 February)

Event Time Altitude Azimuth Distance (km) Brightness Sun altitude
Rises 17:45:23 0° 283° (WNW) 2,165 8.0 -14.8°
Reaches altitude 10° 17:47:27 10° 277° (W) 1,320 6.8 -15.1°
Maximum altitude 17:50:15 41° 205° (SSW) 524 3.8 -15.6°
Enters shadow 17:51:43 22° 146° (SE) 821 4.3 -15.8°
